This is the latest recevied weather packets stored in our database for station/object DF7ER-12. If no packets are shown the sender has not sent any weather packets the latest 10 day(s).
| Time | Temp. | Humidity | Pressure | Rain* | Wind** | Luminosity | Snow |
|---|---|---|---|---|---|---|---|
| 1787893278 | 21.11° C | 94% | 997.8 hPa | - | - | - | - |
| 1787892979 | 20° C | 100% | 997.8 hPa | - | - | - | - |
| 1787892679 | 20.56° C | 100% | 997.9 hPa | - | - | - | - |
| 1787892378 | 20.56° C | 100% | 998 hPa | - | - | - | - |
| 1787892078 | 20.56° C | 99% | 998.1 hPa | - | - | - | - |
| 1787891778 | 20.56° C | 99% | 998.3 hPa | - | - | - | - |
| 1787891479 | 20.56° C | 100% | 998.4 hPa | - | - | - | - |
| 1787891179 | 20° C | 100% | 998.7 hPa | - | - | - | - |
| 1787890878 | 20° C | 100% | 999 hPa | - | - | - | - |
| 1787890579 | 21.11° C | 100% | 999.1 hPa | - | - | - | - |
| 1787890278 | 21.11° C | 96% | 999.1 hPa | - | - | - | - |
| 1787889979 | 21.11° C | 100% | 999.4 hPa | - | - | - | - |
| 1787889678 | 21.67° C | 96% | 999.5 hPa | - | - | - | - |
| 1787889378 | 21.11° C | 97% | 999.6 hPa | - | - | - | - |
| 1787889079 | 21.11° C | 95% | 999.6 hPa | - | - | - | - |
| 1787888778 | 21.67° C | 91% | 999.8 hPa | - | - | - | - |
| 1787888478 | 21.11° C | 95% | 999.8 hPa | - | - | - | - |
| 1787888179 | 21.11° C | 96% | 999.9 hPa | - | - | - | - |
| 1787887878 | 21.67° C | 94% | 1000.2 hPa | - | - | - | - |
| 1787887578 | 21.11° C | 94% | 999.9 hPa | - | - | - | - |
| 1787887278 | 21.11° C | 92% | 1000.1 hPa | - | - | - | - |
| 1787886979 | 21.11° C | 95% | 1000.7 hPa | - | - | - | - |
| 1787886678 | 21.67° C | 89% | 999.9 hPa | - | - | - | - |
| 1787886378 | 22.78° C | 79% | 1000.8 hPa | - | - | - | - |
| 1787885024 | 23.89° C | 68% | 998.6 hPa | - | - | - | - |
* Rain since midnight (hover to see other rain measurements)
** Current wind speed in m/s (hover to see current wind gust speed)